Location: Ellingshausen
(50.5460°N, 10.4723°E)
Time: 06:12:29
(UTC+00:00)

Cosmos 44 - Pass Details

Date: 18 January 2026
Orbit: 570 x 780 km, 65.1° (Epoch: 18 February)

Event Time Altitude Azimuth Distance (km) Brightness Sun altitude
Exits shadow 04:08:47 71° 42° (NE) 821 3.6 -28.3°
Maximum altitude 04:08:51 71° 47° (NE) 820 3.6 -28.3°
Drops below altitude 10° 04:14:14 10° 132° (SE) 2,330 6.6 -27.4°
Sets 04:16:39 0° 134° (SE) 3,251 7.4 -27.0°
